Location: Carrières
(48.9495°N, 2.0407°E)
Time: 19:46:30
(UTC+00:00)

Cosmos 2278 Rocket - Pass Details

Date: 28 January 2023
Orbit: 841 x 845 km, 71.0° (Epoch: 25 March)

Event Time Altitude Azimuth Distance (km) Brightness Sun altitude
Rises 19:38:07 0° 335° (NNW) 3,417 5.7 -28.8°
Reaches altitude 10° 19:41:10 10° 351° (N) 2,478 4.8 -29.3°
Enters shadow 19:42:47 16° 5° (N) 2,087 4.2 -29.5°
